This is the latest recevied weather packets stored in our database for station/object VE3TEJ. If no packets are shown the sender has not sent any weather packets the latest 10 day(s).
| Time | Temp. | Humidity | Pressure | Rain* | Wind** | Luminosity | Snow |
|---|---|---|---|---|---|---|---|
| 1778169457 | 11.11° C | 47% | 1010.5 hPa | 0 mm | - | - | - |
| 1778169159 | 11.11° C | 48% | 1010.5 hPa | 0 mm | - | - | - |
| 1778168859 | 11.67° C | 48% | 1010.6 hPa | 0 mm | - | - | - |
| 1778168557 | 11.67° C | 49% | 1010.5 hPa | 0 mm | - | - | - |
| 1778168259 | 11.67° C | 48% | 1010.5 hPa | 0 mm | - | - | - |
| 1778167958 | 12.22° C | 48% | 1010.6 hPa | 0 mm | - | - | - |
| 1778167658 | 13.33° C | 46% | 1010.4 hPa | 0 mm | - | - | - |
| 1778167357 | 12.22° C | 47% | 1010.4 hPa | 0 mm | - | - | - |
| 1778167059 | 11.67° C | 50% | 1010.4 hPa | 0 mm | - | - | - |
| 1778166758 | 11.67° C | 52% | 1010.5 hPa | 0 mm | - | - | - |
| 1778166458 | 11.11° C | 52% | 1010.8 hPa | 0 mm | - | - | - |
| 1778166158 | 10.56° C | 61% | 1010.8 hPa | 0 mm | - | - | - |
| 1778165857 | 10.56° C | 55% | 1010.6 hPa | 0 mm | - | - | - |
| 1778165559 | 11.11° C | 52% | 1010.4 hPa | 0 mm | - | - | - |
| 1778165258 | 12.22° C | 51% | 1010.5 hPa | 0 mm | - | - | - |
| 1778164958 | 11.67° C | 52% | 1010.8 hPa | 0 mm | - | - | - |
| 1778164659 | 11.11° C | 51% | 1010.6 hPa | 0 mm | - | - | - |
| 1778164358 | 11.67° C | 51% | 1010.7 hPa | 0 mm | - | - | - |
| 1778164058 | 10.56° C | 52% | 1010.8 hPa | 0 mm | - | - | - |
| 1778163757 | 11.11° C | 53% | 1011 hPa | 0 mm | - | - | - |
| 1778163459 | 11.11° C | 55% | 1010.8 hPa | 0 mm | - | - | - |
| 1778163159 | 11.11° C | 55% | 1011 hPa | 0 mm | - | - | - |
| 1778162858 | 10.56° C | 59% | 1010.9 hPa | 0 mm | - | - | - |
| 1778162558 | 10° C | 55% | 1010.8 hPa | 0 mm | - | - | - |
| 1778162258 | 10.56° C | 59% | 1010.8 hPa | 0 mm | - | - | - |
* Rain latest hour (hover to see other rain measurements)
** Current wind speed in m/s (hover to see current wind gust speed)